This demonstration page uses our WeatherBlox Daily Observations layout. Learn more.

Left ArrowRight Arrow

Hourly Observations for April 12, 2020

Temp ( °F °C ) Dew Point ( °F °C ) Humidity (%) Winds ( mph kmh ) Pressure ( in mb ) Visibility ( mi km ) Precip ( " mm )
12:15 am 00:15 Clear 46 8 34 1 62 62 ESE 5 7 30.1 1019 10 16.0934 0 0
12:35 am 00:35 Clear 46 8 34 1 62 62 Calm 30.1 1019 10 16.0934 0 0
12:55 am 00:55 Clear 45 7 36 2 71 71 Calm 30.09 1019 10 16.0934 0 0
1:15 am 01:15 Clear 43 6 36 2 76 76 Calm 30.09 1019 10 16.0934 0 0
1:35 am 01:35 Clear 43 6 36 2 76 76 Calm 30.09 1019 10 16.0934 0 0
1:55 am 01:55 Clear 45 7 36 2 71 71 E 3 6 30.08 1019 10 16.0934 0 0
2:15 am 02:15 Clear 41 5 36 2 81 81 ENE 3 6 30.07 1018 10 16.0934 0 0
2:35 am 02:35 Clear 41 5 34 1 76 76 Calm 30.07 1018 10 16.0934 0 0
2:55 am 02:55 Partly Cloudy 37 3 34 1 87 87 Calm 30.08 1019 10 16.0934 0 0
3:15 am 03:15 Partly Cloudy 41 5 36 2 81 81 Calm 30.07 1018 10 16.0934 0 0
3:35 am 03:35 Clear 37 3 36 2 93 93 Calm 30.09 1019 10 16.0934 0 0
3:55 am 03:55 Clear 37 3 34 1 87 87 Calm 30.1 1019 10 16.0934 0 0
4:15 am 04:15 Clear 39 4 34 1 81 81 N 3 6 30.1 1019 10 16.0934 0 0
4:35 am 04:35 Clear 39 4 32 0 75 75 N 5 7 30.1 1019 10 16.0934 0 0
4:55 am 04:55 Clear 39 4 32 0 75 75 Calm 30.1 1019 10 16.0934 0 0
5:15 am 05:15 Partly Cloudy 36 2 32 0 87 87 NNW 3 6 30.12 1020 10 16.0934 0 0
5:35 am 05:35 Mostly Cloudy 39 4 32 0 75 75 NE 6 9 30.1 1019 10 16.0934 0 0
5:55 am 05:55 Mostly Cloudy 37 3 34 1 87 87 Calm 30.11 1020 10 16.0934 0 0
6:15 am 06:15 Mostly Cloudy 37 3 32 0 81 81 Calm 30.12 1020 10 16.0934 0 0
6:35 am 06:35 Cloudy 37 3 34 1 87 87 Calm 30.12 1020 10 16.0934 0 0
6:55 am 06:55 Cloudy 39 4 36 2 87 87 Calm 30.12 1020 10 16.0934 0 0
7:15 am 07:15 Cloudy 39 4 36 2 87 87 Calm 30.13 1020 10 16.0934 0 0
7:35 am 07:35 Cloudy 41 5 36 2 81 81 Calm 30.13 1020 10 16.0934 0 0
7:55 am 07:55 Cloudy 43 6 34 1 71 71 Calm 30.13 1020 10 16.0934 0 0
8:15 am 08:15 Cloudy 43 6 34 1 71 71 Calm 30.13 1020 10 16.0934 0 0
8:35 am 08:35 Cloudy 43 6 36 2 76 76 NE 3 6 30.13 1020 10 16.0934 0 0
8:55 am 08:55 Mostly Cloudy 45 7 36 2 71 71 Calm 30.12 1020 10 16.0934 0 0
9:15 am 09:15 Partly Cloudy 46 8 37 3 71 71 Calm 30.12 1020 10 16.0934 0 0
9:35 am 09:35 Mostly Cloudy 48 9 37 3 66 66 Calm 30.13 1020 10 16.0934 0 0
9:55 am 09:55 Cloudy 50 10 39 4 67 67 Calm 30.14 1021 10 16.0934 0 0
10:15 am 10:15 Cloudy 50 10 39 4 67 67 Calm 30.14 1021 10 16.0934 0 0
10:35 am 10:35 Cloudy 52 11 41 5 67 67 S 5 7 30.13 1020 10 16.0934 0 0
10:55 am 10:55 Cloudy 52 11 43 6 72 72 S 8 13 30.13 1020 10 16.0934 0 0
11:15 am 11:15 Cloudy 52 11 43 6 72 72 S 6 9 30.13 1020 10 16.0934 0 0
11:35 am 11:35 Cloudy 54 12 43 6 67 67 S 6 9 30.13 1020 10 16.0934 0 0
11:55 am 11:55 Mostly Cloudy 54 12 41 5 63 63 S 7 11 30.14 1021 10 16.0934 0 0
12:15 pm 12:15 Cloudy 55 13 41 5 59 59 S 8 13 30.13 1020 10 16.0934 0 0
12:35 pm 12:35 Mostly Cloudy 55 13 41 5 59 59 S 6 9 30.12 1020 10 16.0934 0 0
12:55 pm 12:55 Mostly Cloudy 55 13 43 6 63 63 S 8 13 30.1 1019 10 16.0934 0 0
1:15 pm 13:15 Partly Cloudy 61 16 43 6 52 52 SSE 7 11 30.08 1019 10 16.0934 0 0
1:35 pm 13:35 Partly Cloudy 64 18 45 7 49 49 SSW 10 17 30.06 1018 10 16.0934 0 0
1:55 pm 13:55 Sunny 64 18 46 8 52 52 S 12 19 30.05 1018 10 16.0934 0 0
2:15 pm 14:15 Sunny 68 20 46 8 46 46 SSW 10 17 30.04 1017 10 16.0934 0 0
2:35 pm 14:35 Sunny 68 20 46 8 46 46 SSW 13 20 30.03 1017 10 16.0934 0 0
2:55 pm 14:55 Sunny 70 21 48 9 46 46 WSW 14 22 30.02 1017 10 16.0934 0 0
3:15 pm 15:15 Sunny 72 22 46 8 41 41 SW 16 26 30.03 1017 10 16.0934 0 0
3:35 pm 15:35 Sunny 70 21 45 7 40 40 SSW 17 28 30.04 1017 10 16.0934 0 0
3:55 pm 15:55 Sunny 68 20 46 8 46 46 SSW 12 19 30.03 1017 10 16.0934 0 0
4:15 pm 16:15 Sunny 70 21 46 8 43 43 SW 12 19 30.03 1017 10 16.0934 0 0
4:35 pm 16:35 Sunny 70 21 46 8 43 43 SSW 10 17 30.02 1017 10 16.0934 0 0
4:55 pm 16:55 Partly Cloudy 68 20 48 9 49 49 S 7 11 30.01 1016 10 16.0934 0 0
5:15 pm 17:15 Mostly Cloudy 68 20 48 9 49 49 S 10 17 29.99 1016 10 16.0934 0 0
5:35 pm 17:35 Cloudy 68 20 48 9 49 49 S 13 20 29.97 1015 10 16.0934 0 0
5:55 pm 17:55 Cloudy 68 20 48 9 49 49 S 9 15 29.96 1015 10 16.0934 0 0
6:15 pm 18:15 Cloudy 68 20 50 10 53 53 S 8 13 29.94 1014 10 16.0934 0 0
6:35 pm 18:35 Cloudy 68 20 50 10 53 53 S 7 11 29.96 1015 10 16.0934 0 0
6:55 pm 18:55 Cloudy 68 20 50 10 53 53 S 5 7 29.96 1015 10 16.0934 0 0
7:15 pm 19:15 Cloudy 68 20 50 10 53 53 S 3 6 29.97 1015 10 16.0934 0 0
7:35 pm 19:35 Cloudy 66 19 50 10 56 56 S 3 6 29.97 1015 10 16.0934 0 0
7:55 pm 19:55 Cloudy 64 18 54 12 68 68 S 3 6 29.97 1015 10 16.0934 0 0
8:15 pm 20:15 Cloudy 64 18 55 13 73 73 S 6 9 29.99 1016 10 16.0934 0 0
8:35 pm 20:35 Cloudy 64 18 55 13 73 73 S 8 13 29.97 1015 10 16.0934 0.01 0.254
8:55 pm 20:55 Cloudy 63 17 55 13 77 77 S 9 15 29.98 1015 10 16.0934 0.03 0.762
9:15 pm 21:15 Cloudy 63 17 55 13 77 77 SSE 9 15 30 1016 10 16.0934 0.01 0.254
9:35 pm 21:35 Cloudy 61 16 55 13 83 83 SSE 9 15 30 1016 10 16.0934 0.03 0.762
9:55 pm 21:55 Cloudy 59 15 57 14 94 94 SSE 8 13 29.99 1016 10 16.0934 0.04 1.016
10:15 pm 22:15 Cloudy 59 15 57 14 94 94 SE 7 11 29.98 1015 10 16.0934 0.01 0.254
10:35 pm 22:35 Cloudy 59 15 57 14 94 94 ESE 5 7 29.96 1015 10 16.0934 0.02 0.508
10:55 pm 22:55 Cloudy 59 15 57 14 94 94 SSE 7 11 29.98 1015 10 16.0934 0.03 0.762
11:15 pm 23:15 Cloudy 59 15 57 14 94 94 SSE 12 19 29.97 1015 10 16.0934 0.02 0.508
11:35 pm 23:35 Cloudy 59 15 57 14 94 94 SSE 14 22 29.95 1014 10 16.0934 0.05 1.27
11:55 pm 23:55 Cloudy 57 14 57 14 100 100 SSE 13 20 29.94 1014 10 16.0934 0.06 1.524

Powered by AerisWeather